Погода в Ситте Ривер

Белиз     16°51′14″N   88°16′53″W
темп.,
°C
ветер,
м/с
пор.,
м/с
влажн.,
%
обл.,
%
осадки,
мм/ч
давл.,
гПа
погр.,
м
12 июня, сб
сб1200:00+27в568285 1.7 1011610
03:00+27всв3482100 2.6 1010528
06:00+26ю2286100 12.9 1010162
09:00+25ссв1191100 12.7 1011154
12:00+26с1184100 12.9 1011290
15:00+27всв3277100 0.0 1009408
18:00+27св3377100 0.0 1009313
21:00+27св4679100 0.0 1011612
13 июня, вс
вс1300:00+27всв2480100 0.4 1011588
03:00+26с2381100 2.3 1010392
06:00+26ссв238297 8.6 1011176
09:00+27св2382100 2.4 1012395
12:00+26св4588100 3.9 1012474
15:00+25всв3489100 0.6 1010395
18:00+26св2285100 0.8 1010349
21:00+26св138358 0.2 1012452
14 июня, пн
пн1400:00+25зсз228544 0.3 1011135
03:00+24зсз1192100 2.1 101090
06:00+24сз2291100 2.8 1010124
09:00+27с127690 0.0 1011415
12:00+28св1274100 0.0 1011409
15:00+28всв4478100 0.4 1009536
18:00+27всв578395 1.8 1009551
21:00+27в7983100 8.9 1011641
15 июня, вт
вт1500:00+26вюв3581100 19.8 1011437
03:00+26ссз1276100 1.9 1010506
06:00+25ссз228685 2.0 1011254
09:00+28вюв137296 0.0 1012605
12:00+28в447787 0.0 1011701
15:00+28всв4474100 0.0 1009784
18:00+28всв6779100 0.1 1010857
21:00+28в7978100 0.3 1011987
16 июня, ср
ср1600:00+27в7884100 7.3 1010712
03:00+27вюв4584100 11.4 1008357
06:00+27с0183100 15.3 1009156
09:00+27юз1185100 4.6 1010111
12:00+28юз1177100 7.6 1009337
15:00+28вюв1179100 0.8 1008268
18:00+27в348699 2.1 1009168
21:00+27юв4582100 2.9 1010350